1500634800.29,7975,21.56,74238.8,18.17,-4.81,-4.37,0,*73
1500634801.47,7976,21.56,74236.0,18.21,-4.17,-3.39,0,*73
1500634802.67,7977,21.56,74238.0,18.21,-3.91,-3.75,0,*73
1500634803.86,7978,21.56,74240.5,18.25,-5.47,-5.47,0,*72
1500634805.13,7979,21.56,74240.3,18.23,-5.15,-5.19,0,*79
1500634806.35,7980,21.56,74242.8,18.25,-5.23,-4.99,0,*75
1500634807.61,7981,21.56,74242.5,18.27,-5.11,-4.89,0,*76
1500634808.83,7982,21.56,74244.8,18.27,-4.29,-3.79,0,*77
1500634810.07,7983,21.56,74244.5,18.31,-2.75,-2.31,0,*73
1500634811.31,7984,21.56,74244.0,18.35,-3.03,-2.71,0,*74
1500634812.52,7985,21.56,74248.8,18.37,-3.15,-2.43,0,*71
1500634813.75,7986,21.56,74250.5,18.45,-3.07,-2.07,0,*74
1500634814.96,7987,21.56,74246.5,18.47,-3.11,-1.87,0,*7B
1500634816.19,7988,21.56,74244.0,18.51,-2.59,-1.87,0,*7E
1500634817.38,7989,21.56,74246.5,18.55,-3.11,-2.43,0,*7D
1500634818.59,7990,21.56,74244.0,18.57,-4.53,-4.29,0,*7C
1500634819.77,7991,21.56,74242.5,18.55,-4.61,-4.09,0,*7C
1500634820.97,7992,21.56,74244.0,18.55,-4.77,-4.13,0,*73
1500634822.19,7993,21.56,74246.3,18.57,-5.35,-4.53,0,*73
1500634823.37,7994,21.56,74246.0,18.59,-4.53,-3.39,0,*70
1500634824.55,7995,21.56,74246.0,18.59,-4.05,-3.03,0,*7B
1500634825.77,7996,21.56,74244.0,18.63,-3.31,-2.55,0,*73
1500634826.98,7997,21.56,74248.5,18.65,-2.91,-1.67,0,*7D
1500634828.2,7998,21.56,74246.5,18.69,-3.39,-2.03,0,*7C
1500634829.46,7999,21.56,74246.5,18.71,-2.63,-0.93,0,*41
1500634830.68,8000,21.56,74246.8,18.77,-3.39,-2.03,0,*74
1500634831.87,8001,21.56,74240.3,18.77,-3.95,-2.27,0,*75
1500634833.09,8002,21.56,74242.3,18.81,-4.13,-2.47,0,*70
1500634834.31,8003,21.56,74244.0,18.85,-3.59,-1.79,0,*72
1500634835.56,8004,21.56,74244.8,18.87,-2.63,-0.33,0,*40
1500634836.77,8005,21.56,74248.0,18.93,-2.47,-0.33,0,*42
1500634837.97,8006,21.56,74248.0,18.95,-2.83,-0.65,0,*4C
1500634839.21,8007,21.56,74248.3,18.99,-2.47,-0.49,0,*47
1500634840.39,8008,21.56,74246.3,19.03,-2.43,-0.45,0,*42
1500634841.62,8009,21.56,74246.5,19.09,-2.67,-0.53,0,*48
1500634842.83,8010,21.56,74246.3,19.11,-3.67,-1.55,0,*7F
1500634844.05,8011,21.56,74240.5,19.13,-4.05,-1.71,0,*79
1500634845.24,8012,21.56,74246.5,19.15,-3.83,-1.29,0,*78
1500634846.44,8013,21.56,74250.3,19.17,-3.23,-0.69,0,*44
1500634847.68,8014,21.56,74252.5,19.21,-3.51,-1.59,0,*71
1500634848.89,8015,21.56,74250.3,19.21,-3.39,-1.75,0,*70
1500634850.12,8016,21.56,74250.0,19.21,-4.37,-2.51,0,*7F
1500634851.33,8017,21.56,74252.0,19.23,-4.17,-2.11,0,*7A
1500634852.53,8018,21.56,74252.0,19.27,-4.77,-3.07,0,*71
1500634853.75,8019,21.56,74252.0,19.27,-4.21,-2.11,0,*75
1500634854.95,8020,21.56,74252.5,19.31,-4.05,-1.95,0,*71
1500634856.17,8021,21.56,74250.3,19.33,-3.87,-1.83,0,*78
1500634857.41,8022,21.56,74250.8,19.35,-4.01,-1.55,0,*7F
1500634858.67,8023,21.56,74254.3,19.35,-4.85,-2.47,0,*72
1500634859.91,8024,21.56,74254.3,19.39,-4.99,-2.75,0,*75
1500634861.15,8025,21.56,74250.3,19.39,-5.19,-2.95,0,*73
1500634862.36,8026,21.56,74250.3,19.41,-5.15,-2.79,0,*71
1500634863.58,8027,21.56,74252.0,19.43,-4.61,-2.35,0,*78
1500634864.84,8028,21.56,74256.0,19.43,-4.85,-2.67,0,*7A
1500634866.07,8029,21.56,74256.0,19.47,-3.71,-1.55,0,*71
1500634867.29,8030,21.56,74254.3,19.49,-3.87,-2.03,0,*7E
1500634868.49,8031,21.56,74256.5,19.53,-5.43,-3.71,0,*7E
1500634869.67,8032,21.56,74252.3,19.53,-5.39,-3.23,0,*77
1500634870.91,8033,21.56,74258.3,19.55,-3.75,-1.87,0,*72
1500634872.12,8034,21.56,74258.5,19.57,-5.65,-3.83,0,*76
1500634873.33,8035,21.56,74256.0,19.59,-6.01,-4.33,0,*74
1500634874.57,8036,21.56,74256.5,19.59,-8.11,-6.51,0,*7E
1500634875.78,8037,21.56,74252.5,19.57,-10.71,-9.27,0,*40
1500634876.97,8038,21.56,74254.5,19.49,-10.09,-8.75,0,*49
1500634878.21,8039,21.56,74248.8,19.47,-9.31,-7.77,0,*78
1500634879.45,8040,21.56,74254.5,19.45,-9.41,-7.91,0,*7B
1500634880.67,8041,21.56,74246.0,19.43,-8.89,-7.49,0,*7C
1500634881.88,8042,21.56,74252.0,19.41,-7.91,-6.59,0,*7B
1500634883.1,8043,21.56,74250.0,19.41,-7.43,-6.13,0,*7B
1500634884.31,8044,21.56,74254.5,19.41,-7.69,-6.35,0,*70
1500634885.51,8045,21.56,74254.8,19.41,-10.01,-9.01,0,*41
1500634886.73,8046,21.56,74248.5,19.39,-10.19,-9.31,0,*47
1500634887.92,8047,21.56,74254.3,19.37,-10.01,-9.05,0,*46
1500634889.16,8048,21.56,74254.0,19.35,-9.15,-8.33,0,*72
1500634890.38,8049,21.56,74248.8,19.33,-10.67,-9.97,0,*47
1500634891.57,8050,21.56,74250.5,19.31,-10.45,-9.67,0,*42
1500634892.78,8051,21.56,74254.0,19.23,-10.15,-9.57,0,*46
1500634894.01,8052,21.56,74246.0,19.25,-9.67,-9.15,0,*78
1500634895.2,8053,21.56,74244.5,19.23,-9.71,-9.01,0,*7D
1500634896.41,8054,21.56,74242.0,19.19,-8.51,-8.17,0,*76
1500634897.59,8055,21.56,74242.3,19.19,-9.31,-8.67,0,*77
1500634898.8,8056,21.56,74240.5,19.21,-9.01,-8.33,0,*7D
1500634900.02,8057,21.56,74244.0,19.21,-9.97,-9.41,0,*77
1500634901.26,8058,21.56,74242.5,19.17,-9.49,-8.85,0,*77
1500634902.49,8059,21.56,74242.0,19.17,-9.93,-9.49,0,*70
1500634903.71,8060,21.56,74238.3,19.15,-12.43,-11.89,0,*7A
1500634904.91,8061,21.56,74234.0,19.11,-9.05,-8.37,0,*7A
1500634906.09,8062,21.56,74234.5,19.11,-7.19,-6.39,0,*7A
1500634907.36,8063,21.56,74232.5,19.13,-5.93,-5.69,0,*7F
1500634908.58,8064,21.56,74232.8,19.13,-6.09,-5.39,0,*7D
1500634909.78,8065,21.56,74228.3,19.15,-6.73,-5.69,0,*72
1500634910.99,8066,21.56,74230.3,19.15,-8.81,-7.49,0,*72
1500634912.19,8067,21.56,74228.0,19.13,-9.89,-8.25,0,*79
1500634913.42,8068,21.56,74232.0,19.11,-9.45,-7.99,0,*7C
1500634914.63,8069,21.56,74232.5,19.07,-8.33,-7.35,0,*7C
1500634915.87,8070,21.56,74238.8,18.99,-7.87,-7.01,0,*75
1500634917.1,8071,21.56,74244.3,18.95,-7.77,-6.85,0,*7A
1500634918.31,8072,21.56,74242.3,18.93,-7.65,-6.09,0,*78
1500634919.5,8073,21.56,74238.8,18.89,-6.43,-4.99,0,*7C
1500634920.72,8074,21.56,74228.5,18.85,-8.45,-6.97,0,*73
1500634921.94,8075,21.56,74230.8,18.85,-5.89,-4.09,0,*7A
1500634923.15,8076,21.56,74230.8,18.81,-5.35,-3.63,0,*71
1500634924.38,8077,21.56,74232.0,18.79,-5.15,-3.23,0,*71
1500634925.6,8078,21.56,74232.8,18.77,-4.09,-2.67,0,*7D
1500634926.82,8079,21.56,74232.5,18.75,-3.11,-2.19,0,*79
1500634928.0,8080,21.56,74234.8,18.77,-2.27,-1.17,0,*74
1500634929.21,8081,21.56,74236.3,18.77,-1.33,-0.27,0,*41
1500634930.45,8082,21.56,74238.5,18.75,-1.17,-0.23,0,*42
1500634931.66,8083,21.56,74238.0,18.77,-0.93,-0.19,0,*75
1500634932.89,8084,21.56,74240.3,18.77,-0.27,0.59,0,*54
1500634934.09,8085,21.56,74240.0,18.79,0.97,1.05,0,*45
1500634935.3,8086,21.56,74240.3,18.81,-0.23,-0.37,0,*7E
1500634936.51,8087,21.56,74240.5,18.85,-2.23,-2.59,0,*73
1500634937.75,8088,21.56,74236.3,18.79,-1.91,-1.71,0,*7C
1500634938.94,8089,21.56,74238.5,18.81,-0.15,-0.37,0,*74
1500634940.16,8090,21.56,74232.5,18.81,0.71,0.51,0,*7E
1500634941.36,8091,21.56,74228.3,18.87,-0.03,-0.07,0,*7F
1500634942.56,8092,21.56,74230.8,18.87,-0.53,-0.45,0,*7F
1500634943.77,8093,21.56,74220.8,18.87,-0.69,-0.29,0,*7D
1500634945.02,8094,21.56,74224.8,18.91,-0.23,0.37,0,*51
1500634946.24,8095,21.56,74230.3,18.91,-0.41,0.25,0,*57
1500634947.47,8096,21.56,74226.8,18.95,-0.81,0.21,0,*58
1500634948.68,8097,21.56,74232.5,18.95,-1.33,-0.07,0,*78
1500634949.89,8098,21.56,74234.8,18.97,-2.71,-1.17,0,*70
1500634951.12,8099,21.56,74232.0,18.97,-2.51,-0.89,0,*45
1500634952.36,8100,21.56,74234.3,18.97,-3.67,-1.43,0,*77
1500634953.56,8101,21.56,74230.0,18.99,-3.23,-0.65,0,*4D
1500634954.76,8102,21.56,74234.8,18.99,-3.23,-0.65,0,*4E
1500634955.97,8103,21.56,74236.0,18.99,-4.13,-1.25,0,*7E
1500634957.2,8104,21.56,74238.0,18.99,-3.63,-0.53,0,*49
1500634958.43,8105,21.56,74238.8,18.99,-4.45,-1.35,0,*7A
1500634959.64,8106,21.56,74238.5,18.99,-5.43,-2.15,0,*7F
1500634960.83,8107,21.56,74236.8,18.97,-7.23,-4.09,0,*7F
1500634962.04,8108,21.56,74238.5,18.97,-5.93,-2.91,0,*7E
1500634963.26,8109,21.56,74242.5,18.97,-5.03,-2.19,0,*76
1500634964.52,8110,21.56,74242.3,18.95,-5.11,-2.71,0,*71
1500634965.73,8111,21.56,74234.8,18.93,-5.07,-2.83,0,*7C
1500634966.95,8112,21.56,74242.0,18.91,-4.29,-2.35,0,*7D
1500634968.15,8113,21.56,74236.8,18.89,-3.79,-2.27,0,*74
1500634969.36,8114,21.56,74234.5,18.89,-6.93,-6.05,0,*76
1500634970.63,8115,21.56,74238.8,18.87,-5.27,-4.73,0,*76
1500634971.85,8116,21.56,74238.5,18.79,-4.57,-4.37,0,*72
1500634973.06,8117,21.56,74236.5,18.79,-4.17,-4.29,0,*78
1500634974.3,8118,21.56,74238.0,18.75,-3.71,-3.95,0,*7C
1500634975.53,8119,21.56,74236.0,18.71,-3.35,-3.47,0,*76
1500634976.77,8120,21.56,74238.5,18.71,-2.75,-3.11,0,*7A
1500634977.99,8121,21.56,74242.0,18.67,-2.31,-2.55,0,*7D
1500634979.2,8122,21.56,74238.3,18.67,-2.27,-2.51,0,*7D
1500634980.4,8123,21.56,74234.3,18.63,-2.67,-2.79,0,*76
1500634981.58,8124,21.56,74240.3,18.63,-2.23,-2.23,0,*7E
1500634982.82,8125,21.56,74234.5,18.57,-4.81,-4.99,0,*71
1500634984.03,8126,21.56,74234.8,18.49,-4.21,-3.79,0,*7E
1500634985.29,8127,21.56,74236.5,18.45,-4.01,-3.67,0,*7E
1500634986.53,8128,21.63,74246.0,18.41,-2.99,-2.63,0,*77
1500634987.8,8129,21.56,74232.8,18.31,-5.07,-4.85,0,*7F
1500634989.02,8130,21.56,74234.3,18.23,-3.83,-3.35,0,*72
1500634990.21,8131,21.56,74238.0,18.17,-3.19,-2.79,0,*7E
1500634991.43,8132,21.56,74228.5,18.13,-3.63,-3.07,0,*7C
1500634992.64,8133,21.56,74222.8,18.03,-3.35,-2.55,0,*79
1500634993.83,8134,21.56,74230.0,17.99,-1.71,-0.77,0,*42
1500634995.04,8135,21.56,74228.3,17.95,-1.47,-0.41,0,*4F
1500634996.23,8136,21.56,74232.8,17.87,-1.17,0.05,0,*57
1500634997.43,8137,21.56,74234.3,17.83,2.47,4.15,0,*7C
1500634998.63,8138,21.56,74234.5,17.89,4.57,6.03,0,*7B
1500634999.82,8139,21.56,74234.3,17.91,4.41,5.93,0,*7E
1500635001.06,8140,21.56,74224.5,17.97,5.01,6.57,0,*78
1500635002.23,8141,21.56,74228.5,17.99,7.33,8.79,0,*76
1500635003.47,8142,21.56,74238.5,18.07,6.47,7.51,0,*7A
1500635004.71,8143,21.56,74236.8,18.09,6.43,7.65,0,*76
1500635005.92,8144,21.56,74236.3,18.17,6.51,7.59,0,*72
1500635007.16,8145,21.56,74236.8,18.25,7.27,8.37,0,*75
1500635008.36,8146,21.56,74238.8,18.29,7.05,8.33,0,*7E
1500635009.62,8147,21.56,74234.3,18.37,6.13,7.61,0,*7E
1500635010.84,8148,21.56,74234.5,18.43,5.05,6.87,0,*7F
1500635012.03,8149,21.56,74236.8,18.47,5.49,7.65,0,*7F
1500635013.23,8150,21.56,74236.3,18.49,2.95,5.37,0,*7A
1500635014.47,8151,21.56,74240.5,18.53,-0.97,1.97,0,*63
1500635015.7,8152,21.56,74236.3,18.49,-1.51,2.13,0,*5F
1500635016.93,8153,21.56,74232.3,18.47,-1.87,2.25,0,*5E
1500635018.15,8154,21.56,74238.3,18.43,-2.75,1.97,0,*59
1500635019.38,8155,21.56,74234.3,18.41,-0.45,4.59,0,*6C
1500635020.58,8156,21.56,74230.5,18.37,-0.19,5.33,0,*6A
1500635021.82,8157,21.56,74228.5,18.37,-0.77,5.01,0,*62
1500635023.02,8158,21.56,74234.3,18.35,-1.63,4.15,0,*5F
1500635024.22,8159,21.56,74234.8,18.35,-0.57,5.41,0,*68
1500635025.43,8160,21.56,74228.5,18.35,0.79,6.79,0,*4B
1500635026.69,8161,21.56,74226.8,18.41,1.33,7.11,0,*79
1500635027.95,8162,21.56,74230.0,18.41,1.85,8.13,0,*7A
1500635029.18,8163,21.56,74234.8,18.45,0.75,6.53,0,*4B
1500635030.4,8164,21.63,74234.3,18.47,0.55,6.39,0,*40
1500635031.62,8165,21.56,74230.0,18.49,1.63,7.37,0,*74
1500635032.82,8166,21.56,74230.0,18.51,0.55,6.03,0,*4C
1500635034.02,8167,21.56,74230.3,18.51,-0.33,5.51,0,*64
1500635035.23,8168,21.56,74234.3,18.51,-1.25,4.93,0,*52
1500635036.43,8169,21.56,74244.5,18.55,1.05,7.11,0,*71
1500635037.62,8170,21.56,74238.8,18.59,0.97,7.23,0,*4E
1500635038.81,8171,21.56,74236.3,18.59,-0.49,6.13,0,*63
1500635040.02,8172,21.56,74246.3,18.65,0.63,7.45,0,*48
1500635041.21,8173,21.56,74246.5,18.69,1.01,8.05,0,*7B
1500635042.38,8174,21.56,74242.0,18.73,-0.45,7.09,0,*68
1500635043.62,8175,21.56,74242.8,18.73,-1.35,6.43,0,*50
1500635044.86,8176,21.56,74240.3,18.79,-1.99,6.25,0,*5F
1500635046.04,8177,21.56,74244.0,18.81,-1.71,6.93,0,*52
1500635047.26,8178,21.56,74244.0,18.85,-1.13,7.55,0,*56
1500635048.5,8179,21.56,74242.3,18.87,-1.29,7.69,0,*53
1500635049.68,8180,21.56,74244.0,18.89,-2.31,6.83,0,*54
1500635050.91,8181,21.56,74244.5,18.91,-2.03,7.45,0,*56
1500635052.09,8182,21.56,74242.8,18.93,-1.55,7.97,0,*58
1500635053.28,8183,21.56,74242.8,18.93,-3.75,6.11,0,*56
1500635054.52,8184,21.56,74240.5,18.95,-3.83,6.13,0,*5C
1500635055.75,8185,21.56,74240.3,18.95,-4.17,5.89,0,*57
1500635057.0,8186,21.56,74234.0,18.91,-4.89,5.27,0,*53
1500635058.25,8187,21.56,74242.0,18.89,-5.23,4.93,0,*54
1500635059.49,8188,21.56,74244.0,18.87,-4.21,5.89,0,*5C
1500635060.7,8189,21.56,74250.0,18.85,-3.07,6.87,0,*51
1500635061.91,8190,21.56,74244.0,18.81,-2.71,6.97,0,*5C
1500635063.12,8191,21.56,74242.3,18.81,-2.99,6.47,0,*56
1500635064.36,8192,21.63,74250.8,18.79,-1.01,8.19,0,*55
1500635065.6,8193,21.56,74254.8,18.79,0.13,8.97,0,*4D
1500635066.84,8194,21.56,74258.8,18.79,0.13,8.75,0,*46
1500635068.08,8195,21.56,74258.0,18.81,1.21,9.35,0,*75
1500635069.29,8196,21.56,74256.8,18.85,2.95,10.65,0,*43
1500635070.53,8197,21.56,74254.3,18.89,3.71,10.95,0,*4A
1500635071.75,8198,21.63,74256.0,18.95,2.59,9.71,0,*71
1500635073.02,8199,21.56,74254.5,18.95,4.05,10.79,0,*4F
1500635074.28,8200,21.56,74256.0,19.01,4.97,11.41,0,*41
1500635075.53,8201,21.56,74256.0,19.09,4.79,11.03,0,*4E
1500635076.76,8202,21.56,74260.3,19.13,5.15,11.07,0,*49
1500635077.98,8203,21.56,74262.0,19.21,4.31,9.99,0,*70
1500635079.18,8204,21.56,74262.3,19.21,3.63,9.21,0,*74
1500635080.42,8205,21.56,74262.8,19.25,2.85,8.33,0,*7A
1500635081.62,8206,21.56,74262.5,19.27,1.83,7.19,0,*79
1500635082.84,8207,21.56,74264.3,19.25,1.05,6.43,0,*7A
1500635084.02,8208,21.56,74262.8,19.27,-0.53,4.85,0,*60
1500635085.24,8209,21.56,74262.8,19.25,-1.59,4.01,0,*54
1500635086.44,8210,21.56,74262.0,19.23,-1.39,4.19,0,*55
1500635087.65,8211,21.56,74262.8,19.21,0.17,5.95,0,*43
1500635088.86,8212,21.56,74258.0,19.21,0.51,6.29,0,*46
1500635090.07,8213,21.56,74258.0,19.23,0.87,6.73,0,*41
1500635091.28,8214,21.56,74260.3,19.21,0.47,6.29,0,*47
1500635092.46,8215,21.56,74262.0,19.19,-0.15,5.59,0,*63
1500635093.66,8216,21.56,74258.5,19.21,-0.03,5.63,0,*55
1500635094.85,8217,21.56,74260.0,19.19,0.05,5.81,0,*78
1500635096.06,8218,21.63,74262.8,19.19,0.33,5.81,0,*42
1500635097.27,8219,21.63,74266.3,19.17,0.01,5.27,0,*70
1500635098.48,8220,21.56,74264.0,19.15,-0.41,4.71,0,*63
1500635099.69,8221,21.63,74262.5,19.15,-0.93,4.01,0,*6A
1500635100.94,8222,21.56,74258.5,19.13,-0.89,3.71,0,*64
1500635102.17,8223,21.56,74258.3,19.09,-0.65,4.05,0,*68
1500635103.39,8224,21.56,74262.0,19.03,-0.23,4.59,0,*6E
1500635104.62,8225,21.56,74260.8,19.03,0.29,4.71,0,*42
1500635105.82,8226,21.56,74256.5,19.01,-0.29,4.15,0,*6C
1500635107.02,8227,21.56,74256.5,18.97,0.55,4.85,0,*4C
1500635108.23,8228,21.56,74252.0,18.95,1.01,5.15,0,*79
1500635109.43,8229,21.56,74252.5,18.93,1.71,5.71,0,*7B
1500635110.66,8230,21.56,74254.8,18.89,2.59,6.47,0,*77
1500635111.87,8231,21.56,74254.8,18.89,2.27,5.93,0,*75
1500635113.08,8232,21.56,74254.3,18.89,1.29,4.81,0,*79
1500635114.28,8233,21.63,74256.8,18.85,2.35,5.73,0,*76
1500635115.48,8234,21.56,74254.5,18.85,2.77,5.95,0,*7F
1500635116.74,8235,21.56,74254.0,18.79,2.73,5.55,0,*75
1500635117.99,8236,21.56,74254.3,18.75,1.59,4.67,0,*71
1500635119.22,8237,21.63,74252.3,18.71,2.17,4.85,0,*71
1500635120.4,8238,21.63,74252.5,18.67,2.65,5.41,0,*75
1500635121.65,8239,21.56,74252.0,18.65,2.43,5.05,0,*72
1500635122.88,8240,21.63,74252.3,18.57,2.77,5.49,0,*72
1500635124.07,8241,21.63,74254.3,18.57,4.19,6.79,0,*7D
1500635125.24,8242,21.63,74254.5,18.59,4.45,6.83,0,*7C
1500635126.49,8243,21.56,74252.0,18.53,3.97,6.43,0,*73
1500635127.71,8244,21.63,74254.3,18.49,3.71,6.11,0,*70
1500635128.88,8245,21.56,74252.0,18.51,4.45,6.75,0,*7A
1500635130.1,8246,21.56,74254.8,18.47,4.31,6.57,0,*7D
1500635131.31,8247,21.56,74252.5,18.45,4.97,7.33,0,*71
1500635132.52,8248,21.56,74250.5,18.43,5.05,7.29,0,*79
1500635133.71,8249,21.56,74248.8,18.41,5.15,7.45,0,*71
1500635134.93,8250,21.56,74250.0,18.41,4.79,7.01,0,*72
1500635136.15,8251,21.56,74248.0,18.37,4.27,6.57,0,*7B
1500635137.37,8252,21.56,74250.3,18.35,4.15,6.53,0,*7F
1500635138.62,8253,21.56,74248.5,18.37,3.23,5.55,0,*7B
1500635139.87,8254,21.56,74248.3,18.31,3.97,6.39,0,*7C
1500635141.07,8255,21.56,74246.8,18.29,3.67,6.29,0,*7A
1500635142.3,8256,21.56,74250.5,18.27,4.89,7.73,0,*7E
1500635143.53,8257,21.63,74250.0,18.25,5.05,7.91,0,*74
1500635144.73,8258,21.56,74248.3,18.25,5.45,8.41,0,*7D
1500635145.92,8259,21.63,74254.5,18.25,5.45,8.41,0,*7C
1500635147.15,8260,21.63,74248.5,18.23,5.27,8.27,0,*74
1500635148.35,8261,21.56,74250.5,18.23,5.71,8.83,0,*78
1500635149.6,8262,21.56,74250.0,18.23,5.81,8.89,0,*7E
1500635150.82,8263,21.56,74248.0,18.25,5.85,9.15,0,*79
1500635152.0,8264,21.56,74250.5,18.25,5.99,9.29,0,*7C
1500635153.23,8265,21.56,74248.8,18.23,6.17,9.47,0,*76
1500635154.45,8266,21.56,74250.5,18.25,6.33,9.53,0,*70
1500635155.63,8267,21.56,74250.8,18.25,5.99,9.29,0,*7F
1500635156.81,8268,21.63,74254.3,18.25,5.99,9.25,0,*7C
1500635158.02,8269,21.63,74252.3,18.23,6.07,9.43,0,*7F
1500635159.23,8270,21.56,74248.3,18.25,6.35,9.63,0,*72
1500635160.46,8271,21.63,74258.3,18.23,6.57,9.91,0,*7C
1500635161.69,8272,21.56,74254.0,18.27,6.65,9.75,0,*70
1500635162.93,8273,21.63,74256.0,18.27,5.95,9.19,0,*77
1500635164.18,8274,21.63,74254.8,18.27,5.89,9.11,0,*75
1500635165.42,8275,21.63,74254.5,18.27,5.55,8.75,0,*76
1500635166.62,8276,21.63,74252.8,18.27,5.49,8.61,0,*7D
1500635167.85,8277,21.56,74250.5,18.27,5.07,8.13,0,*73
1500635169.02,8278,21.56,74250.3,18.25,4.49,7.59,0,*74
1500635170.22,8279,21.56,74248.5,18.23,5.15,8.27,0,*7D
1500635171.47,8280,21.56,74250.5,18.23,5.85,8.89,0,*76
1500635172.69,8281,21.63,74254.8,18.23,5.51,8.65,0,*7C
1500635173.92,8282,21.56,74248.5,18.23,5.01,8.01,0,*78
1500635175.1,8283,21.56,74248.0,18.21,4.33,7.51,0,*71
1500635176.3,8284,21.63,74250.5,18.21,4.41,7.77,0,*77
1500635177.53,8285,21.56,74248.0,18.19,4.57,7.83,0,*71
1500635178.75,8286,21.63,74250.3,18.13,3.97,7.23,0,*79
1500635179.93,8287,21.63,74250.5,18.13,4.27,7.55,0,*75
1500635181.1,8288,21.63,74248.0,18.13,4.19,7.33,0,*77
1500635182.34,8289,21.63,74248.0,18.09,4.05,7.19,0,*78
1500635183.56,8290,21.56,74246.5,18.07,5.45,8.51,0,*78
1500635184.81,8291,21.63,74248.3,18.07,5.93,8.75,0,*74
1500635186.02,8292,21.63,74248.8,18.05,6.03,8.71,0,*7B
1500635187.26,8293,21.63,74250.0,18.07,6.25,8.71,0,*7C
1500635188.47,8294,21.63,74248.8,18.05,6.35,8.65,0,*7D
1500635189.67,8295,21.63,74248.8,18.05,7.11,9.07,0,*7E
1500635190.9,8296,21.56,74250.5,18.05,7.47,9.19,0,*71
1500635192.13,8297,21.63,74250.0,18.03,7.77,9.11,0,*7D
1500635193.35,8298,21.56,74248.8,18.05,7.87,8.93,0,*70
1500635194.58,8299,21.63,74250.5,18.07,8.29,9.07,0,*74
1500635195.79,8300,21.63,74250.5,18.05,9.07,9.53,0,*7B
1500635196.99,8301,21.56,74248.0,18.05,9.15,9.29,0,*74
1500635198.25,8302,21.63,74250.5,18.07,8.55,8.29,0,*71
1500635199.45,8303,21.63,74250.5,18.03,8.83,8.51,0,*70
1500635200.63,8304,21.56,74248.5,18.03,9.29,8.61,0,*75
1500635201.82,8305,21.56,74248.3,18.03,9.15,8.23,0,*7D
1500635203.02,8306,21.63,74254.8,18.03,9.15,8.05,0,*7A
1500635204.23,8307,21.63,74252.8,18.03,9.39,8.01,0,*71
1500635205.45,8308,21.56,74254.8,18.03,9.01,7.47,0,*78
1500635206.62,8309,21.63,74252.5,18.03,9.21,7.59,0,*74
1500635207.85,8310,21.63,74254.8,18.03,9.39,7.69,0,*76
1500635209.07,8311,21.56,74250.0,18.03,9.61,7.83,0,*7E
1500635210.26,8312,21.63,74252.3,18.03,9.29,7.23,0,*7B
1500635211.44,8313,21.63,74254.3,18.05,9.63,7.59,0,*7F
1500635212.65,8314,21.63,74254.8,18.05,9.81,7.51,0,*7C
1500635213.87,8315,21.63,74254.3,18.05,9.15,6.57,0,*77
1500635215.07,8316,21.56,74252.8,18.09,9.57,6.97,0,*72
1500635216.32,8317,21.63,74256.8,18.11,9.61,6.87,0,*7E
1500635217.53,8318,21.63,74256.5,18.17,8.05,5.01,0,*79
1500635218.76,8319,21.56,74256.5,18.13,7.69,4.71,0,*7F
1500635219.97,8320,21.56,74256.5,18.17,9.19,6.33,0,*7C
1500635221.17,8321,21.56,74258.3,18.21,8.65,5.81,0,*78
1500635222.4,8322,21.56,74258.5,18.25,8.51,5.55,0,*71
1500635223.59,8323,21.63,74258.0,18.25,8.15,5.29,0,*7B
1500635224.81,8324,21.63,74256.3,18.29,7.83,4.97,0,*74
1500635226.05,8325,21.56,74254.0,18.33,7.77,5.01,0,*7B
1500635227.3,8326,21.63,74252.8,18.37,6.17,3.49,0,*71
1500635228.5,8327,21.63,74252.5,18.43,4.93,2.31,0,*73
1500635229.72,8328,21.63,74254.8,18.45,4.37,1.89,0,*74
1500635230.91,8329,21.56,74250.8,18.47,5.81,3.55,0,*78
1500635232.13,8330,21.56,74252.5,18.53,5.41,3.15,0,*7D
1500635233.37,8331,21.63,74256.0,18.57,4.71,2.61,0,*78
1500635234.57,8332,21.63,74260.8,18.65,5.19,3.29,0,*78
1500635235.8,8333,21.56,74252.0,18.69,3.71,1.85,0,*79
1500635237.0,8334,21.63,74252.3,18.73,0.41,-1.55,0,*65
1500635238.25,8335,21.63,74250.3,18.71,-1.99,-3.79,0,*73
1500635239.5,8336,21.56,74242.0,18.71,-3.35,-5.07,0,*7B
1500635240.68,8337,21.63,74240.3,18.69,-2.91,-4.45,0,*7B
1500635241.87,8338,21.63,74238.8,18.67,-2.95,-4.53,0,*79
1500635243.11,8339,21.63,74238.0,18.65,-5.15,-6.85,0,*7C
1500635244.35,8340,21.63,74238.5,18.57,-6.77,-8.51,0,*73
1500635245.55,8341,21.63,74226.8,18.49,-6.89,-8.67,0,*79
1500635246.77,8342,21.63,74208.5,18.49,-9.23,-11.11,0,*4C
1500635248.01,8343,21.63,74212.8,18.41,-9.67,-11.77,0,*45
1500635249.26,8344,21.56,74212.3,18.31,-8.17,-10.41,0,*47
1500635250.5,8345,21.56,74210.3,18.27,-8.93,-11.51,0,*4D
1500635251.72,8346,21.63,74214.3,18.23,-8.45,-11.23,0,*44
1500635252.97,8347,21.63,74218.0,18.19,-7.99,-11.15,0,*47
1500635254.19,8348,21.56,74212.8,18.13,-7.61,-10.93,0,*4A
1500635255.44,8349,21.63,74218.5,18.07,-8.25,-11.93,0,*40
1500635256.71,8350,21.63,74216.3,18.01,-8.07,-11.81,0,*4D
1500635257.95,8351,21.56,74212.8,17.97,-8.25,-12.07,0,*41
1500635259.15,8352,21.63,74216.3,17.91,-6.51,-10.27,0,*49
1500635260.39,8353,21.63,74216.3,17.89,-5.93,-9.71,0,*77
1500635261.6,8354,21.56,74214.5,17.87,-6.13,-10.01,0,*4A
1500635262.83,8355,21.63,74218.0,17.85,-6.35,-10.27,0,*49
1500635264.06,8356,21.63,74220.5,17.81,-4.73,-8.45,0,*73
1500635265.31,8357,21.56,74226.5,17.81,-3.83,-7.57,0,*76
1500635266.49,8358,21.63,74232.0,17.83,-3.23,-7.23,0,*72
1500635267.67,8359,21.56,74228.5,17.83,-2.79,-6.69,0,*72
1500635268.85,8360,21.63,74232.5,17.83,-2.91,-6.59,0,*7D
1500635270.1,8361,21.56,74230.0,17.85,-1.01,-4.53,0,*78
1500635271.29,8362,21.56,74230.0,17.87,-0.29,-3.67,0,*42
1500635272.48,8363,21.56,74226.0,17.95,-0.07,-3.47,0,*7E
1500635273.69,8364,21.63,74222.5,17.99,-1.75,-5.31,0,*76
1500635274.93,8365,21.56,74220.8,18.01,-1.13,-4.49,0,*77
1500635276.14,8366,21.63,74234.8,18.03,1.55,-1.33,0,*51
1500635277.35,8367,21.56,74234.3,18.07,0.67,-2.91,0,*6F
1500635278.59,8368,21.63,74232.8,18.09,0.83,-2.47,0,*6F
1500635279.83,8369,21.63,74236.5,18.17,1.89,-1.39,0,*50
1500635281.03,8370,21.56,74234.0,18.25,0.59,-2.83,0,*67
1500635282.22,8371,21.63,74226.3,18.25,0.17,-3.19,0,*6E
1500635283.42,8372,21.63,74230.5,18.29,-0.11,-3.55,0,*42
1500635284.62,8373,21.56,74230.5,18.33,-1.21,-4.53,0,*7B
1500635285.88,8374,21.63,74232.3,18.37,-1.39,-4.77,0,*77
1500635287.09,8375,21.56,74230.8,18.37,-4.45,-7.83,0,*70
1500635288.32,8376,21.63,74226.0,18.37,-4.17,-7.31,0,*7D
1500635289.56,8377,21.63,74224.8,18.37,-5.07,-8.21,0,*72
1500635290.8,8378,21.63,74224.5,18.37,-5.85,-8.75,0,*76
1500635292.03,8379,21.63,74228.0,18.37,-5.61,-8.21,0,*7C
1500635293.3,8380,21.63,74218.0,18.35,-5.93,-8.11,0,*76
1500635294.56,8381,21.63,74218.0,18.35,-5.27,-6.97,0,*78
1500635295.76,8382,21.63,74228.5,18.37,-4.53,-5.97,0,*78
1500635297.0,8383,21.63,74222.8,18.41,-4.61,-5.81,0,*7E
1500635298.24,8384,21.63,74218.8,18.45,-3.31,-4.01,0,*76
1500635299.42,8385,21.63,74228.3,18.47,-3.87,-4.53,0,*7F
1500635300.64,8386,21.63,74226.5,18.51,-4.53,-5.07,0,*75
1500635301.84,8387,21.63,74230.8,18.51,-6.63,-7.15,0,*74
1500635303.1,8388,21.63,74228.8,18.49,-7.27,-7.31,0,*75
1500635304.34,8389,21.56,74226.8,18.47,-7.73,-7.73,0,*7D
1500635305.55,8390,21.63,74240.0,18.43,-11.19,-11.33,0,*79
1500635306.82,8391,21.56,74232.8,18.35,-11.97,-11.97,0,*71
1500635308.06,8392,21.63,74234.0,18.27,-9.19,-9.15,0,*7D
1500635309.32,8393,21.63,74246.8,18.23,-9.45,-9.41,0,*70
1500635310.56,8394,21.56,74234.3,18.17,-10.71,-10.97,0,*7C
1500635311.84,8395,21.63,74230.0,18.07,-11.59,-11.93,0,*72
1500635313.05,8396,21.63,74226.5,18.01,-8.71,-9.19,0,*7E
1500635314.29,8397,21.63,74226.0,17.95,-8.81,-9.61,0,*7D
1500635315.52,8398,21.63,74218.5,17.85,-5.97,-7.05,0,*75
1500635316.72,8399,21.63,74216.3,17.83,-4.45,-6.27,0,*7D
1500635317.94,8400,21.63,74216.8,17.81,-3.75,-6.31,0,*7B
1500635319.18,8401,21.63,74216.5,17.77,-4.41,-7.57,0,*72